[[{"header":{"parameterUnit":"m.s-1","parameterCategory":1,"la1":30.2991,"la2":30.254,"lo1":-89.0895,"lo2":-89.0444,"dy":0.0017,"dx":0.0017,"nx":28,"ny":28,"refTime":"2025-07-23T03:00:00:Z","depth":0,"parameterNumber":2,"parameterNumberName":"U-component_of_WINDS"},"data":[0,0,0,0,0,0,0,0,0,0,0,0,0,0,0,0,0,0,0,0,0,0,0,0,0,0,0,0,0,0,0,0,0,0,0,0,0,0,0,0,0,0,0,0,0,0,0,0,0,0,0,0,0,0,0,0,0,0,-2.4297,-2.4297,0,-2.4347,-2.4347,-2.4348,-2.4351,-2.435,-2.4349,-2.4349,-2.4403,-2.4405,-2.4406,0,0,0,0,0,0,0,0,0,0,0,0,0,-2.4207,-2.4209,-2.4297,-2.4297,-2.4298,-2.4347,-2.4347,-2.4348,-2.4351,-2.435,-2.4349,-2.4349,-2.4402,-2.4404,-2.4407,0,0,0,0,0,0,0,0,0,0,0,0,0,-2.425,-2.4209,-2.4297,-2.4305,-2.4306,-2.4347,-2.4347,-2.4348,-2.4351,-2.435,-2.4349,-2.4348,-2.4401,-2.4404,-2.4407,-2.4443,0,0,-2.4416,-2.4417,0,0,0,0,0,0,0,0,-2.4248,-2.4254,-2.4303,-2.4305,-2.4306,-2.4342,-2.4335,-2.438,-2.4351,-2.4334,-2.4349,-2.4348,-2.4383,-2.4388,-2.4399,-2.4445,-2.4448,-2.4416,-2.4418,-2.4419,-2.442,0,0,0,0,0,0,0,-2.4245,-2.4252,-2.4317,-2.4304,-2.4306,-2.4308,-2.4313,-2.4344,-2.4363,-2.4336,-2.4336,-2.4342,-2.4384,-2.4396,-2.44,-2.4448,-2.4416,-2.4419,-2.4421,-2.4422,-2.4527,-2.4528,0,0,0,0,0,0,-2.424,-2.4249,-2.4315,-2.4318,-2.4274,-2.431,-2.4316,-2.4331,-2.4363,-2.4367,-2.4342,-2.4342,-2.4391,-2.4397,-2.4402,-2.4447,-2.4419,-2.4422,-2.4424,-2.4526,-2.4528,-2.4529,0,0,0,0,0,0,-2.4238,-2.4246,-2.4313,-2.4284,-2.4292,-2.4312,-2.433,-2.4333,-2.4345,-2.4368,-2.4371,-2.4351,-2.4391,-2.4398,-2.4433,-2.4448,-2.4423,-2.4426,-2.4525,-2.4527,-2.4528,-2.4535,0,0,0,0,0,0,-2.4235,-2.4245,-2.4258,-2.4284,-2.4294,-2.4342,-2.4331,-2.4334,-2.435,-2.4349,-2.4377,-2.4381,-2.4391,-2.4428,-2.4436,-2.4452,-2.4428,-2.4524,-2.4526,-2.4528,-2.4534,-2.4537,-2.4539,0,0,0,0,0,-2.4232,-2.4259,-2.4259,-2.4267,-2.4311,-2.4343,-2.4349,-2.4359,-2.4351,-2.4365,-2.438,-2.438,-2.4445,-2.4432,-2.444,-2.4458,-2.4523,-2.4525,-2.4528,-2.4532,-2.4536,-2.4539,0,0,0,0,0,0,-2.4235,-2.4262,-2.4263,-2.4298,-2.4318,-2.4343,-2.4361,-2.4362,-2.4386,-2.4385,-2.4397,-2.4403,-2.4438,-2.4451,-2.4436,-2.4494,-2.4483,-2.4488,-2.4484,-2.4488,-2.4491,-2.4487,-2.4431,0,0,0,0,0,-2.4239,-2.4262,-2.4285,-2.4314,-2.4324,-2.4341,-2.4355,-2.4361,-2.4383,-2.4392,-2.4409,-2.4431,-2.4456,-2.4473,-2.4498,-2.4536,-2.4542,-2.4552,-2.4555,-2.4557,-2.4561,-2.4582,-2.4587,-2.4536,-2.4536,-2.4536,0,0,-2.425,-2.4267,-2.4281,-2.4315,-2.4332,-2.4356,-2.4348,-2.4374,-2.4393,-2.4396,-2.443,-2.4443,-2.4468,-2.4505,-2.4522,-2.4517,-2.4576,-2.456,-2.4562,-2.4564,-2.4585,-2.459,-2.4594,-2.4538,-2.4538,-2.4537,0,0,-2.428,-2.4296,-2.4322,-2.4338,-2.4362,-2.4373,-2.4379,-2.4404,-2.4413,-2.4447,-2.445,-2.4473,-2.4517,-2.4534,-2.4549,-2.4587,-2.4589,-2.4595,-2.461,-2.4631,-2.4635,-2.4639,-2.4653,-2.4658,-2.4598,-2.4598,-2.4598,0,-2.429,-2.4326,-2.4335,-2.4361,-2.4377,-2.438,-2.4407,-2.4423,-2.4454,-2.4465,-2.4459,-2.4514,-2.4531,-2.4572,-2.4582,-2.4593,-2.4602,-2.4592,-2.4634,-2.4637,-2.4641,-2.4655,-2.466,-2.4599,-2.4599,-2.4599,-2.4599,0,-2.4337,-2.4362,-2.438,-2.4409,-2.4427,-2.4453,-2.4468,-2.4484,-2.4489,-2.4501,-2.4536,-2.4557,-2.4586,-2.4596,-2.4601,-2.4638,-2.4634,-2.4631,-2.462,-2.4646,-2.4659,-2.4664,-2.46,-2.46,-2.4599,-2.4599,0,0,-2.4371,-2.4405,-2.4412,-2.4425,-2.4452,-2.4472,-2.4499,-2.4527,-2.4541,-2.4563,-2.4587,-2.4624,-2.4621,-2.4637,-2.4645,-2.4663,-2.4692,-2.4658,-2.4658,-2.4664,-2.4735,-2.4738,-2.4743,-2.4694,-2.4695,-2.4695,-2.4733,0,-2.4405,-2.4452,-2.4461,-2.4503,-2.4526,-2.453,-2.4553,-2.4573,-2.4585,-2.4608,-2.4621,-2.4647,-2.4641,-2.4651,-2.467,-2.4685,-2.4707,-2.4682,-2.4716,-2.4718,-2.471,-2.475,-2.4753,-2.4788,-2.4738,-2.4739,-2.474,0,-2.4452,-2.4473,-2.4516,-2.454,-2.4551,-2.4572,-2.4598,-2.4619,-2.4642,-2.4649,-2.4668,-2.4674,-2.4703,-2.4691,-2.4732,-2.4715,-2.4729,-2.4739,-2.4741,-2.4744,-2.473,-2.4756,-2.4799,-2.4804,-2.4748,-2.4747,-2.4746,0,-2.4473,-2.4513,-2.4544,-2.4556,-2.4584,-2.4599,-2.4612,-2.4634,-2.465,-2.4673,-2.4684,-2.4711,-2.4726,-2.4747,-2.4759,-2.4749,-2.48,-2.4788,-2.4808,-2.4807,-2.4818,-2.4817,-2.4865,-2.4827,-2.4827,-2.4827,-2.4827,0,-2.451,-2.4537,-2.4554,-2.4573,-2.4603,-2.4614,-2.4644,-2.4657,-2.4676,-2.4699,-2.4704,-2.4725,-2.474,-2.4764,-2.4775,-2.4807,-2.4814,-2.4821,-2.4824,-2.4821,-2.482,-2.4831,-2.4829,-2.4828,-2.4828,-2.4828,-2.4827,0,-2.4539,-2.4552,-2.4586,-2.461,-2.4617,-2.4638,-2.4659,-2.4678,-2.469,-2.4719,-2.4726,-2.4745,-2.4773,-2.4788,-2.4823,-2.483,-2.4867,-2.4868,-2.4859,-2.486,-2.4879,-2.4877,-2.4935,-2.4944,-2.49,-2.49,-2.4901,0,-2.4563,-2.4583,-2.4609,-2.4624,-2.4637,-2.4661,-2.4677,-2.4688,-2.4705,-2.4733,-2.4749,-2.4777,-2.48,-2.4846,-2.4863,-2.4891,-2.4893,-2.4911,-2.4897,-2.4893,-2.4893,-2.4892,-2.4895,-2.4914,-2.4914,-2.4914,-2.4915,0,-2.4603,-2.4608,-2.4631,-2.4655,-2.4674,-2.4695,-2.4715,-2.4727,-2.4742,-2.4761,-2.4789,-2.4807,-2.4843,-2.4872,-2.49,-2.4915,-2.4918,-2.4919,-2.4925,-2.4923,-2.4917,-2.4921,-2.4867,-2.4918,-2.4917,-2.4917,-2.4917,-2.4917,-2.4631,-2.4649,-2.467,-2.4695,-2.4711,-2.473,-2.4749,-2.4763,-2.4786,-2.4815,-2.4821,-2.4851,-2.4874,-2.4913,-2.4928,-2.4952,-2.4949,-2.4957,-2.4959,-2.4962,-2.4963,-2.4912,-2.4958,-2.4958,-2.4958,-2.4958,-2.4957,0,-2.4672,-2.4685,-2.4708,-2.4736,-2.4755,-2.4755,-2.4777,-2.4794,-2.482,-2.4841,-2.4863,-2.4896,-2.4924,-2.4943,-2.4971,-2.4987,-2.4989,-2.4994,-2.4994,-2.4997,-2.4964,-2.4956,-2.4992,-2.4992,-2.4992,-2.4992,-2.4992,-2.4992,-2.4696,-2.4727,-2.4734,-2.4773,-2.4787,-2.4815,-2.4828,-2.4846,-2.4862,-2.4898,-2.492,-2.4932,-2.4953,-2.4983,-2.5008,-2.5013,-2.5024,-2.5029,-2.5034,-2.5003,-2.4999,-2.4996,-2.4989,-2.5031,-2.5031,-2.5065,-2.5065,-2.5066]},{"header":{"parameterUnit":"m.s-1","parameterCategory":1,"la1":30.2991,"la2":30.254,"lo1":-89.0895,"lo2":-89.0444,"dy":0.0017,"dx":0.0017,"nx":28,"ny":28,"refTime":"2025-07-23T03:00:00:Z","depth":0,"parameterNumber":3,"parameterNumberName":"V-component_of_WINDS"},"data":[0,0,0,0,0,0,0,0,0,0,0,0,0,0,0,0,0,0,0,0,0,0,0,0,0,0,0,0,0,0,0,0,0,0,0,0,0,0,0,0,0,0,0,0,0,0,0,0,0,0,0,0,0,0,0,0,0,0,6.1473,6.1474,0,6.1542,6.1543,6.1544,6.1508,6.1507,6.1505,6.1503,6.1568,6.1571,6.1574,0,0,0,0,0,0,0,0,0,0,0,0,0,6.13,6.1304,6.1473,6.1474,6.1475,6.1542,6.1543,6.1544,6.1509,6.1506,6.1504,6.1502,6.1567,6.1571,6.1575,0,0,0,0,0,0,0,0,0,0,0,0,0,6.1373,6.1305,6.1473,6.1465,6.1465,6.1542,6.1543,6.1544,6.1509,6.1506,6.1504,6.1501,6.1565,6.157,6.1575,6.1662,0,0,6.1591,6.1593,0,0,0,0,0,0,0,0,6.1369,6.1379,6.1465,6.1466,6.1466,6.1514,6.1506,6.1583,6.151,6.1492,6.1503,6.15,6.1552,6.1558,6.1577,6.1665,6.1667,6.1591,6.1595,6.1597,6.1598,0,0,0,0,0,0,0,6.1364,6.1376,6.15,6.1467,6.1467,6.1455,6.1463,6.1521,6.1536,6.1494,6.1491,6.15,6.1551,6.1572,6.1578,6.1668,6.1591,6.1596,6.1599,6.1601,6.1826,6.1828,0,0,0,0,0,0,6.136,6.1372,6.1498,6.1502,6.141,6.1461,6.1469,6.1501,6.1536,6.1538,6.1503,6.1498,6.1564,6.1572,6.158,6.168,6.1597,6.1601,6.1604,6.1823,6.1826,6.1829,0,0,0,0,0,0,6.1357,6.1372,6.1495,6.1437,6.1451,6.1467,6.1503,6.1504,6.1525,6.1542,6.1544,6.1521,6.1562,6.1573,6.1641,6.1682,6.1604,6.1608,6.1819,6.1824,6.1828,6.1882,0,0,0,0,0,0,6.1352,6.1371,6.1406,6.1438,6.1455,6.1558,6.1506,6.1507,6.1534,6.1529,6.156,6.1563,6.1561,6.1633,6.1646,6.1687,6.1612,6.1816,6.1821,6.1826,6.1877,6.1888,6.1897,0,0,0,0,0,6.1346,6.1418,6.1408,6.1424,6.15,6.156,6.157,6.1568,6.1538,6.1571,6.1582,6.1562,6.1676,6.1641,6.1655,6.1698,6.1813,6.182,6.1826,6.1872,6.1886,6.1897,0,0,0,0,0,0,6.139,6.1422,6.1412,6.1497,6.1526,6.1554,6.1597,6.1583,6.162,6.1614,6.1608,6.1616,6.1686,6.1699,6.1659,6.1781,6.1739,6.1749,6.177,6.1783,6.1793,6.1787,6.1617,0,0,0,0,0,6.141,6.1459,6.1484,6.1556,6.1572,6.1582,6.1608,6.1605,6.1634,6.1645,6.1661,6.1689,6.173,6.1757,6.1797,6.1879,6.1883,6.1916,6.1926,6.1934,6.1942,6.1982,6.1995,6.1851,6.1851,6.1851,0,0,6.145,6.1474,6.1506,6.1566,6.1588,6.1635,6.1593,6.1646,6.168,6.1653,6.1718,6.173,6.176,6.1835,6.1868,6.1848,6.1983,6.1942,6.1949,6.1952,6.199,6.2004,6.2016,6.1855,6.1854,6.1854,0,0,6.1549,6.1574,6.1635,6.1658,6.1693,6.1698,6.1713,6.1743,6.175,6.1816,6.1795,6.1835,6.1908,6.1928,6.1949,6.2052,6.2033,6.2065,6.2117,6.2157,6.2168,6.2178,6.2211,6.2224,6.2073,6.2073,6.2073,0,6.1594,6.1668,6.1668,6.1722,6.1747,6.1726,6.1785,6.1807,6.1852,6.1868,6.1845,6.1934,6.1953,6.203,6.2055,6.2073,6.2087,6.206,6.2167,6.2177,6.2186,6.2218,6.2231,6.2076,6.2076,6.2075,6.2075,0,6.172,6.1771,6.1816,6.1861,6.1891,6.1948,6.1953,6.1983,6.1976,6.1983,6.2048,6.207,6.2111,6.213,6.2124,6.2205,6.2191,6.2168,6.2125,6.2203,6.2233,6.2245,6.2081,6.208,6.2079,6.2078,0,0,6.1849,6.1891,6.1907,6.1925,6.1961,6.1998,6.2052,6.2095,6.2119,6.215,6.2192,6.2253,6.2231,6.2254,6.225,6.2285,6.236,6.2257,6.2257,6.2272,6.2447,6.2462,6.2476,6.2349,6.2351,6.2353,6.2443,0,6.1947,6.2043,6.2043,6.213,6.2174,6.2154,6.22,6.2225,6.2233,6.2269,6.2277,6.2319,6.2288,6.2301,6.2335,6.2344,6.2394,6.2338,6.2384,6.2386,6.2375,6.2492,6.2509,6.2593,6.2455,6.2457,6.2458,0,6.2075,6.211,6.2202,6.2227,6.2246,6.2288,6.2324,6.2361,6.2387,6.239,6.2414,6.2404,6.2454,6.2412,6.248,6.2442,6.2461,6.2467,6.2471,6.2472,6.2425,6.2494,6.262,6.2631,6.2477,6.2475,6.2474,0,6.2154,6.2225,6.2288,6.2305,6.2337,6.2366,6.238,6.2404,6.2428,6.246,6.2474,6.2511,6.253,6.2558,6.2556,6.2526,6.2623,6.2582,6.2624,6.2624,6.2644,6.2642,6.2771,6.2661,6.2661,6.2661,6.266,0,6.2262,6.2319,6.2324,6.2363,6.2423,6.2421,6.248,6.2492,6.2512,6.255,6.2535,6.257,6.2567,6.2602,6.2601,6.2655,6.2665,6.2666,6.2664,6.2666,6.2665,6.2676,6.2669,6.2664,6.2663,6.2663,6.2662,0,6.2361,6.2368,6.2435,6.2459,6.2466,6.251,6.2529,6.2564,6.257,6.2617,6.2628,6.2637,6.2677,6.2678,6.2724,6.2723,6.2788,6.2782,6.278,6.2777,6.2818,6.2813,6.2956,6.2973,6.2855,6.2856,6.2857,0,6.2429,6.2471,6.25,6.2525,6.2541,6.2581,6.2605,6.2603,6.2629,6.266,6.269,6.2729,6.2759,6.2824,6.2832,6.2866,6.2858,6.2906,6.2863,6.2862,6.2855,6.2851,6.2854,6.2914,6.2915,6.2916,6.2917,0,6.2546,6.2547,6.2583,6.262,6.2649,6.2678,6.2704,6.2725,6.2725,6.2754,6.2795,6.2819,6.2865,6.2902,6.2935,6.2947,6.2931,6.2931,6.2942,6.2942,6.2938,6.2937,6.2799,6.2927,6.2926,6.2925,6.2925,6.2924,6.2629,6.2665,6.2689,6.2729,6.2749,6.2773,6.2806,6.2815,6.285,6.2888,6.2884,6.2928,6.295,6.2992,6.3006,6.3039,6.3022,6.3039,6.3043,6.3046,6.3049,6.2935,6.3046,6.3045,6.3045,6.3045,6.3045,0,6.2743,6.2757,6.2794,6.2831,6.2862,6.2846,6.2873,6.2899,6.2938,6.2961,6.2991,6.3035,6.3071,6.3082,6.3115,6.3139,6.3132,6.3148,6.3144,6.3146,6.3064,6.305,6.3152,6.3152,6.3152,6.3152,6.3152,6.3152,6.2806,6.2863,6.2866,6.2931,6.2945,6.2989,6.3005,6.3026,6.3043,6.3094,6.3124,6.3131,6.3147,6.3181,6.3212,6.3214,6.3225,6.3243,6.3242,6.3164,6.3153,6.3142,6.3129,6.3246,6.3247,6.3321,6.3322,6.3322]}]]